Flag for United Kingdom Weather past 2 weeks in Leicester, England, United Kingdom

Now
55 °F

Clear.


Feels Like: 53 °F
Forecast: 57 / 65 °F
Wind: 8 mph from Southwest

Location: East Midlands

Current Time: Aug 29, 2015 at 2:17:31 AM

Latest Report: Aug 29, 2015 at 1:50 AM


Visibility: 10 mi

Pressure: 30.07 "Hg

Humidity: 77%

Dew point: 48 °F

Location of LeicesterLocation

Historic Weather in Leicester — Graph

°F

Leicester temperature yesterday

Maximum temperature yesterday: 68 °F (at 2:20 PM)
Minimum temperature yesterday: 52 °F (at 2:50 AM)
Average temperature yesterday: 59 °F

Past Weeks' High & Low Weather Summary

 TemperatureHumidityPressure
High82 °F (Aug 22, 3:50 PM)100% (Aug 14, 1:20 AM)30.09 "Hg (Aug 14, 1:20 AM)
Low45 °F (Aug 16, 3:50 AM)40% (Aug 16, 1:20 PM)29.47 "Hg (Aug 23, 1:20 PM)
Average61 °F76%29.84 "Hg
* Reported Aug 14 1:20 AM — Aug 29 1:20 AM, Leicester, Weather by CustomWeather, © 2015

Note: Actual official high and low records may vary slightly from our data, if they occured in-between our weather recording intervals... More about our weather records

Advertising

Leicester weather history for previous 24 hours

 ConditionsComfort  
Time TempWeatherWind HumidityBarometerVisibility
1:20 AM
Sat, Aug 29
55 °FClear.10 mph77%30.07 "Hg10 mi
12:50 AM55 °FClear.8 mph77%30.07 "Hg10 mi
12:20 AM55 °FClear.7 mph77%30.07 "Hg10 mi
11:50 PM
Fri, Aug 28
57 °FClear.7 mph72%30.07 "Hg10 mi
11:20 PM57 °FClear.12 mph67%30.07 "Hg10 mi
10:50 PM57 °FClear.8 mph72%30.07 "Hg10 mi
10:20 PM57 °FClear.8 mph72%30.04 "Hg10 mi
9:50 PM57 °FPassing clouds.7 mph72%30.04 "HgN/A
9:20 PM59 °FClear.9 mph68%30.04 "Hg10 mi
8:50 PM61 °FSunny.9 mph63%30.04 "Hg10 mi
8:20 PM61 °FSunny.8 mph63%30.01 "Hg10 mi
7:50 PM61 °FPassing clouds.8 mph63%30.01 "HgN/A
7:20 PM63 °FPassing clouds.12 mph59%30.01 "HgN/A
6:50 PM63 °FScattered showers. Scattered clouds.14 mph59%30.01 "HgN/A
6:20 PM64 °FScattered clouds.16 mph52%30.01 "HgN/A
5:50 PM66 °FScattered clouds.18 mph46%29.98 "HgN/A
5:20 PM66 °FScattered clouds.12 mph49%29.98 "HgN/A
4:20 PM66 °FScattered clouds.16 mph49%29.98 "HgN/A
3:50 PM68 °FScattered clouds.21 mph46%29.98 "HgN/A
3:20 PM66 °FScattered clouds.17 mph49%29.98 "HgN/A
2:20 PM68 °FScattered clouds.18 mph49%29.98 "HgN/A
1:50 PM64 °FSprinkles. Scattered clouds.16 mph64%29.98 "HgN/A
1:20 PM66 °FScattered clouds.20 mph52%29.95 "HgN/A
12:50 PM64 °FScattered clouds.18 mph56%29.95 "HgN/A
12:20 PM64 °FScattered clouds.16 mph56%29.95 "HgN/A
11:50 AM64 °FLight rain. Partly sunny.16 mph60%29.95 "HgN/A
11:20 AM64 °FScattered clouds.16 mph56%29.95 "HgN/A
10:20 AM61 °FPassing clouds.16 mph68%29.95 "HgN/A
9:50 AM61 °FPassing clouds.17 mph68%29.95 "HgN/A
9:20 AM59 °FPassing clouds.16 mph77%29.92 "HgN/A
8:50 AM57 °FSunny.14 mph77%29.92 "Hg10 mi
8:20 AM55 °FSunny.15 mph82%29.92 "Hg10 mi
7:50 AM54 °FSunny.13 mph88%29.92 "Hg10 mi
7:20 AM54 °FSunny.14 mph88%29.89 "Hg10 mi
6:50 AM54 °FClear.14 mph82%29.89 "Hg10 mi
6:20 AM52 °FClear.13 mph88%29.89 "Hg10 mi
5:50 AM52 °FClear.14 mph88%29.86 "Hg10 mi
4:50 AM52 °FClear.15 mph88%29.86 "Hg10 mi
4:20 AM52 °FClear.15 mph88%29.86 "Hg10 mi
3:50 AM52 °FClear.15 mph88%29.83 "Hg10 mi
3:20 AM52 °FClear.10 mph88%29.83 "Hg10 mi
2:50 AM52 °FClear.10 mph88%29.83 "Hg10 mi
2:20 AM54 °FClear.8 mph82%29.83 "Hg10 mi
Weather by CustomWeather, © 2015

See weather overviewHow to use our weather pages